Location: El Portezuelo
(28.4984°N, 16.3589°W)
Time: 10:44:02
(UTC+00:00)

Gbstr 26 Del rocket - Pass Details

Date: 20 January 2020
Orbit: 493 x 1264 km, 51.8° (Epoch: 18 February)

Event Time Altitude Azimuth Distance (km) Brightness Sun altitude
Rises 06:41:36 0° 223° (SW) 3,531 6.7 -16.8°
Reaches altitude 10° 06:43:57 10° 223° (SW) 2,697 6.0 -16.3°
Maximum altitude 06:50:34 86° 312° (NW) 1,110 4.2 -14.9°
Drops below altitude 10° 06:58:25 10° 42° (NE) 3,173 7.0 -13.2°
Sets 07:01:24 0° 43° (NE) 4,187 7.7 -12.6°
